C1219 Weather Reports


Display with metric or nautical units.
time (UTC)temp
F
wind
direction
speed
MPH
gust
MPH
rain 1hr
in
rain 24hr
in
rain mn
in
humidity
%
barometer
mb
20260507124553 42 241 2.0 7.0 0.00 0.75 0.00 87 1007.5
20260507124048 41 269 1.0 7.0 0.00 0.75 0.00 89 1007.5
20260507123548 41 253 3.0 7.0 0.00 0.75 0.00 86 1007.5
20260507123051 41 0 1.0 4.0 0.00 0.75 0.00 89 1007.4
20260507122548 41 0 0.0 2.0 0.00 0.75 0.00 90 1007.4
20260507122049 41 227 0.0 5.0 0.00 0.75 0.00 90 1007.4
20260507121554 41 203 1.0 8.0 0.00 0.75 0.00 91 1007.2
20260507121048 41 234 2.0 8.0 0.00 0.75 0.00 91 1007.2
20260507120547 41 291 2.0 8.0 0.00 0.75 0.00 92 1007.3
20260507120058 41 255 2.0 8.0 0.00 0.75 0.00 93 1007.3
20260507115549 41 273 3.0 9.0 0.00 0.76 0.00 93 1007.3
20260507115047 41 266 2.0 9.0 0.00 0.76 0.00 95 1007.2
20260507114553 40 279 2.0 9.0 0.00 0.76 0.00 96 1007.1
20260507114047 40 347 0.0 2.0 0.00 0.76 0.00 96 1007.2
20260507113556 40 0 0.0 2.0 0.00 0.76 0.00 96 1007.1
20260507113100 40 152 0.0 2.0 0.00 0.76 0.00 96 1007.1
20260507112549 40 0 0.0 3.0 0.00 0.76 0.00 96 1007.0
20260507112047 40 0 0.0 3.0 0.00 0.76 0.00 96 1007.1
20260507111549 40 196 1.0 4.0 0.00 0.76 0.00 96 1007.1
20260507111048 40 154 1.0 4.0 0.00 0.76 0.00 95 1007.1
20260507110547 40 192 1.0 4.0 0.00 0.76 0.00 96 1007.2
20260507110053 40 208 1.0 3.0 0.00 0.76 0.00 96 1007.1
20260507105543 40 234 1.0 3.0 0.00 0.78 0.00 96 1007.2
20260507105048 40 198 0.0 3.0 0.00 0.78 0.00 96 1007.1
20260507104548 40 201 1.0 5.0 0.00 0.78 0.00 96 1007.0
20260507104047 40 202 1.0 5.0 0.00 0.78 0.00 96 1007.0
20260507103548 40 178 1.0 4.0 0.00 0.78 0.00 96 1007.0
20260507103052 39 224 1.0 3.0 0.00 0.78 0.00 96 1007.0
20260507102547 40 213 1.0 4.0 0.00 0.78 0.00 96 1006.9
20260507102049 40 196 1.0 4.0 0.00 0.78 0.00 96 1007.0
20260507101554 40 162 1.0 3.0 0.00 0.78 0.00 97 1007.0
20260507101048 40 204 0.0 4.0 0.00 0.78 0.00 97 1006.8
20260507100547 40 196 1.0 4.0 0.00 0.78 0.00 97 1006.9
20260507100049 40 219 2.0 4.0 0.00 0.78 0.00 97 1006.8
20260507095548 39 190 1.0 3.0 0.00 0.78 0.00 97 1006.8
20260507095048 39 0 0.0 2.0 0.00 0.78 0.00 97 1006.8
20260507094551 39 0 0.0 4.0 0.00 0.78 0.00 97 1006.7
20260507094048 39 185 0.0 4.0 0.00 0.78 0.00 97 1006.7
20260507093548 39 219 1.0 6.0 0.00 0.78 0.00 97 1006.9
20260507093054 39 0 1.0 6.0 0.00 0.78 0.00 97 1007.1
20260507092550 39 240 0.0 6.0 0.00 0.78 0.00 97 1007.1
20260507092049 38 239 0.0 6.0 0.00 0.78 0.00 97 1006.9
20260507091548 38 0 0.0 0.0 0.00 0.78 0.00 97 1006.9
20260507091050 38 0 0.0 0.0 0.00 0.78 0.00 97 1006.8
20260507090549 38 0 0.0 0.0 0.00 0.78 0.00 97 1006.9
20260507090049 38 0 0.0 0.0 0.00 0.78 0.00 97 1006.7
20260507085548 38 0 0.0 0.0 0.00 0.85 0.00 97 1006.8
20260507085048 39 0 0.0 0.0 0.00 0.85 0.00 97 1006.7
20260507084551 39 0 0.0 0.0 0.00 0.85 0.00 97 1006.8
20260507084048 39 0 0.0 0.0 0.00 0.85 0.00 97 1007.1
20260507083547 39 0 0.0 0.0 0.00 0.85 0.00 97 1007.2
20260507083050 39 0 0.0 0.0 0.00 0.85 0.00 97 1007.2
20260507082548 39 0 0.0 0.0 0.00 0.85 0.00 97 1007.2
20260507082048 39 0 0.0 0.0 0.00 0.85 0.00 97 1007.1
20260507081554 39 0 0.0 0.0 0.00 0.85 0.00 97 1007.2
20260507081048 39 0 0.0 1.0 0.00 0.85 0.00 97 1007.1
20260507080548 39 0 0.0 1.0 0.00 0.85 0.00 97 1007.1
20260507080115 39 143 0.0 0.0 0.00 0.85 0.00 97 1007.2
20260507075550 39 0 0.0 0.0 0.00 0.88 0.00 97 1007.2
20260507075051 39 0 0.0 2.0 0.00 0.88 0.00 97 1007.1
20260507074602 39 0 0.0 2.0 0.00 0.88 0.00 97 1007.1
20260507074047 39 0 0.0 2.0 0.00 0.88 0.00 97 1007.2
20260507073549 39 144 0.0 2.0 0.00 0.88 0.00 97 1007.1
20260507073100 39 60 0.0 1.0 0.00 0.88 0.00 97 1007.1
20260507072548 39 0 0.0 0.0 0.00 0.88 0.00 97 1007.1
20260507072051 39 0 0.0 2.0 0.00 0.88 0.00 97 1007.0
20260507071610 39 0 0.0 2.0 0.00 0.88 0.00 97 1006.8
20260507071048 39 0 0.0 1.0 0.00 0.88 0.00 97 1006.9
20260507070548 39 0 0.0 1.0 0.00 0.88 0.00 97 1006.8
20260507070057 39 0 0.0 2.0 0.00 0.88 0.00 97 1006.9
20260507065548 39 0 0.0 2.0 0.00 0.89 0.00 97 1006.9
20260507065048 40 95 0.0 1.0 0.00 0.89 0.00 97 1006.9
20260507064552 40 0 0.0 2.0 0.00 0.89 0.00 97 1006.8
20260507064049 39 0 0.0 2.0 0.00 0.89 0.00 97 1006.7
20260507063548 39 0 0.0 0.0 0.00 0.89 0.00 97 1006.7
20260507063056 40 0 0.0 0.0 0.00 0.89 0.00 97 1006.7
20260507062547 40 0 0.0 0.0 0.00 0.89 0.00 97 1007.0
20260507062048 40 0 0.0 0.0 0.00 0.89 0.00 97 1006.8
20260507061558 40 0 0.0 0.0 0.00 0.89 0.00 97 1006.8
20260507061049 40 0 0.0 1.0 0.00 0.89 0.00 97 1007.0
20260507060548 40 0 0.0 1.0 0.00 0.89 0.00 97 1006.8
20260507055548 40 0 0.0 0.0 0.00 0.91 0.00 97 1007.0
20260507055048 40 0 0.0 2.0 0.00 0.91 0.00 97 1007.0
20260507054602 40 0 0.0 2.0 0.00 0.91 0.00 97 1007.2
20260507054048 40 0 0.0 2.0 0.00 0.91 0.00 97 1007.4
20260507053551 40 0 0.0 2.0 0.00 0.91 0.00 97 1007.3
20260507053120 40 0 0.0 2.0 0.00 0.91 0.00 97 1007.1
20260507052547 40 338 0.0 2.0 0.00 0.91 0.00 97 1007.1
20260507052047 40 0 0.0 2.0 0.00 0.91 0.00 97 1007.4
20260507051601 40 0 0.0 1.0 0.00 0.91 0.00 97 1007.6
20260507051052 40 0 0.0 1.0 0.00 0.91 0.00 97 1007.6
20260507050548 40 16 1.0 1.0 0.00 0.91 0.00 97 1007.3
20260507050054 40 16 0.0 1.0 0.00 0.91 0.00 97 1007.5
20260507045548 40 0 0.0 0.0 0.00 1.02 0.00 97 1007.8
20260507045048 40 0 0.0 0.0 0.00 1.02 0.00 97 1007.9
20260507044555 40 0 0.0 0.0 0.00 1.02 0.00 97 1007.8
20260507044048 40 0 0.0 0.0 0.00 1.02 0.00 97 1007.6
20260507043548 40 0 0.0 0.0 0.00 1.02 0.00 97 1007.6
20260507043054 40 0 0.0 0.0 0.00 1.02 0.00 97 1007.6
20260507042548 40 0 0.0 0.0 0.00 1.02 0.00 97 1007.6
20260507042048 40 0 0.0 2.0 0.00 1.02 0.00 97 1007.7
20260507041557 41 0 0.0 2.0 0.00 1.02 0.00 97 1007.6
20260507041051 41 331 1.0 2.0 0.00 1.02 0.00 97 1007.7
20260507040548 41 0 0.0 2.0 0.00 1.02 0.00 97 1007.8
20260507040100 41 0 0.0 2.0 0.00 1.02 0.00 97 1007.8
20260507035548 40 44 0.0 2.0 0.00 1.12 1.02 97 1007.7
20260507035047 41 0 0.0 1.0 0.00 1.12 1.02 97 1007.6
20260507034552 41 0 0.0 1.0 0.00 1.12 1.02 97 1007.6
20260507034048 41 0 0.0 2.0 0.00 1.12 1.02 97 1007.7
20260507033548 41 0 0.0 2.0 0.00 1.12 1.02 97 1007.9
20260507033052 41 0 0.0 2.0 0.00 1.12 1.02 97 1008.0
20260507032549 41 0 0.0 2.0 0.00 1.12 1.02 97 1008.1
20260507032048 41 0 0.0 2.0 0.00 1.12 1.02 97 1007.9
20260507031556 41 0 0.0 0.0 0.00 1.12 1.02 97 1007.8
20260507031048 41 0 0.0 0.0 0.00 1.12 1.02 97 1008.0
20260507030548 41 0 0.0 2.0 0.01 1.12 1.02 97 1008.0
20260507030051 41 0 0.0 2.0 0.01 1.12 1.02 97 1007.9
20260507025548 41 0 0.0 2.0 0.01 1.13 1.02 97 1008.0
20260507025052 41 0 0.0 2.0 0.01 1.13 1.02 97 1008.1
20260507024603 41 93 0.0 2.0 0.01 1.13 1.02 97 1007.9
20260507024048 41 93 0.0 2.0 0.02 1.13 1.02 97 1007.7
20260507023548 41 83 0.0 0.0 0.02 1.13 1.02 97 1007.7
20260507023051 41 0 0.0 0.0 0.02 1.13 1.02 97 1008.0
20260507022549 41 0 0.0 0.0 0.03 1.13 1.02 97 1008.0
20260507022047 41 0 0.0 0.0 0.03 1.13 1.02 97 1008.0
20260507021551 41 0 0.0 2.0 0.03 1.13 1.02 97 1008.2
20260507021047 41 0 0.0 2.0 0.03 1.13 1.02 97 1008.1
20260507020553 41 0 0.0 2.0 0.02 1.12 1.01 97 1007.9
20260507020053 42 0 0.0 2.0 0.02 1.12 1.01 97 1007.9
20260507015550 42 83 1.0 2.0 0.03 1.12 1.01 97 1008.0
20260507015048 42 0 0.0 2.0 0.03 1.12 1.01 97 1008.1
20260507014603 42 0 1.0 2.0 0.02 1.11 1.00 97 1008.3
20260507014048 42 60 0.0 2.0 0.03 1.11 1.00 97 1008.2
20260507013551 42 0 0.0 2.0 0.04 1.11 1.00 97 1008.3
20260507013053 42 0 0.0 0.0 0.04 1.11 1.00 97 1008.3
20260507012552 42 0 0.0 0.0 0.04 1.10 0.99 97 1008.3
20260507012048 42 0 0.0 0.0 0.04 1.10 0.99 97 1008.2
20260507011603 42 0 0.0 2.0 0.04 1.10 0.99 97 1008.1
20260507011047 42 0 0.0 2.0 0.04 1.10 0.99 97 1007.9
20260507010548 42 0 0.0 2.0 0.04 1.10 0.99 97 1008.0
20260507010104 42 0 0.0 1.0 0.04 1.10 0.99 97 1007.8
20260507005548 42 0 0.0 2.0 0.03 1.09 0.98 97 1007.8
20260507005048 42 0 0.0 2.0 0.04 1.09 0.98 97 1007.6
20260507004606 42 60 0.0 2.0 0.04 1.09 0.98 97 1007.7
20260507004048 42 60 0.0 0.0 0.03 1.08 0.97 96 1007.6
20260507003549 42 0 0.0 0.0 0.02 1.07 0.96 96 1007.6
20260507003056 42 0 0.0 0.0 0.02 1.07 0.96 96 1007.4
20260507002548 42 0 0.0 2.0 0.01 1.05 0.95 96 1007.4
20260507002048 42 0 0.0 2.0 0.01 1.05 0.95 96 1007.3
20260507001555 42 60 0.0 2.0 0.01 1.05 0.95 96 1007.2
20260507001050 42 0 0.0 1.0 0.02 1.05 0.95 96 1007.1
20260507000548 42 0 0.0 4.0 0.02 1.05 0.95 96 1007.1
20260507000051 42 0 0.0 4.0 0.02 1.05 0.95 96 1006.8
20260506235550 42 42 0.0 3.0 0.03 1.05 0.95 96 1006.6
20260506235048 42 352 0.0 2.0 0.02 1.04 0.94 96 1006.6
20260506234554 42 49 0.0 2.0 0.02 1.04 0.94 96 1006.5
20260506234047 42 46 1.0 2.0 0.02 1.04 0.94 96 1006.7
20260506233548 42 64 0.0 4.0 0.02 1.04 0.94 96 1006.7
20260506233056 42 0 1.0 4.0 0.02 1.04 0.94 96 1006.4
20260506232548 42 13 1.0 5.0 0.02 1.04 0.94 96 1006.4
20260506232048 42 13 3.0 5.0 0.02 1.04 0.94 96 1006.4
20260506231558 42 34 2.0 4.0 0.02 1.04 0.94 96 1006.6
20260506231052 42 40 1.0 3.0 0.01 1.04 0.93 96 1006.4
20260506230546 42 48 0.0 2.0 0.02 1.04 0.93 96 1006.5
20260506230059 42 0 0.0 4.0 0.02 1.04 0.93 96 1006.5
20260506225550 42 0 0.0 4.0 0.01 1.03 0.92 96 1006.4
20260506225048 42 10 1.0 3.0 0.01 1.03 0.92 96 1006.4
20260506224556 43 0 0.0 2.0 0.01 1.03 0.92 96 1006.3
20260506224046 43 68 0.0 2.0 0.01 1.03 0.92 96 1006.4
20260506223552 43 0 0.0 2.0 0.01 1.03 0.92 96 1006.6
20260506223100 43 0 0.0 4.0 0.01 1.03 0.92 96 1006.5
20260506222549 43 39 1.0 4.0 0.01 1.03 0.92 96 1006.4
20260506222047 43 0 0.0 3.0 0.01 1.03 0.92 97 1006.4
20260506221555 43 0 1.0 3.0 0.01 1.03 0.92 97 1006.2
20260506221048 43 43 1.0 3.0 0.01 1.03 0.92 97 1006.1
20260506220550 43 63 1.0 3.0 0.01 1.02 0.91 97 1006.2
20260506220056 43 69 1.0 3.0 0.01 1.02 0.91 97 1006.3
20260506215551 43 51 1.0 4.0 0.01 1.07 0.91 97 1006.2
20260506215048 43 44 1.0 6.0 0.01 1.07 0.91 97 1006.2
20260506214602 43 0 2.0 6.0 0.02 1.07 0.91 97 1006.1
20260506214048 43 54 1.0 3.0 0.02 1.07 0.91 97 1006.1
20260506213547 43 0 0.0 3.0 0.02 1.07 0.91 97 1006.1
20260506213056 43 30 0.0 3.0 0.02 1.07 0.91 97 1006.1
20260506212547 43 94 1.0 3.0 0.02 1.07 0.91 97 1006.1
20260506212047 43 63 2.0 4.0 0.02 1.07 0.91 97 1006.0
20260506211603 43 73 0.0 4.0 0.02 1.07 0.91 97 1006.1
20260506211047 43 60 2.0 4.0 0.02 1.07 0.91 97 1006.2
20260506210548 43 64 0.0 4.0 0.01 1.05 0.90 97 1006.1
20260506210051 43 80 2.0 4.0 0.01 1.05 0.90 97 1006.0
20260506205548 43 103 0.0 3.0 0.01 1.10 0.90 97 1006.2
20260506205048 43 76 1.0 3.0 0.02 1.10 0.90 97 1006.2
20260506204552 43 0 0.0 2.0 0.01 1.09 0.89 97 1006.1
20260506204049 43 82 0.0 2.0 0.02 1.09 0.89 97 1006.2
20260506203549 43 82 0.0 2.0 0.02 1.09 0.89 97 1006.1
20260506203052 43 0 0.0 2.0 0.02 1.09 0.89 97 1006.0
20260506202548 43 0 0.0 2.0 0.03 1.09 0.89 97 1005.9
20260506202048 43 101 1.0 2.0 0.03 1.09 0.89 97 1005.9
20260506201549 43 91 1.0 3.0 0.03 1.09 0.89 96 1006.1
20260506201047 43 59 1.0 3.0 0.04 1.09 0.89 96 1006.0
20260506200552 43 59 1.0 3.0 0.04 1.09 0.89 96 1006.0
20260506200103 43 90 1.0 3.0 0.04 1.09 0.89 96 1006.0
20260506195548 43 30 1.0 4.0 0.04 1.31 0.89 96 1005.9
20260506195051 43 0 1.0 4.0 0.03 1.30 0.88 96 1006.2
20260506194557 43 61 1.0 4.0 0.03 1.30 0.88 96 1006.1
20260506194049 43 86 0.0 4.0 0.02 1.29 0.87 96 1005.9
20260506193549 43 32 2.0 5.0 0.02 1.29 0.87 96 1006.2
20260506193056 43 61 1.0 5.0 0.02 1.29 0.87 96 1006.0
20260506192548 43 67 1.0 5.0 0.01 1.28 0.86 96 1006.1
20260506192053 43 96 2.0 5.0 0.01 1.28 0.86 96 1006.2
20260506191605 43 61 1.0 5.0 0.01 1.28 0.86 96 1006.0
20260506191048 43 76 1.0 4.0 0.01 1.27 0.85 96 1006.1
20260506190548 43 0 2.0 5.0 0.01 1.27 0.85 96 1006.1
20260506190053 43 23 1.0 5.0 0.01 1.27 0.85 96 1006.1
20260506185548 43 67 0.0 5.0 0.02 1.27 0.85 96 1006.2
20260506185048 43 0 1.0 5.0 0.03 1.27 0.85 96 1006.2
20260506184552 43 83 1.0 10.0 0.03 1.27 0.85 96 1006.2
20260506184048 43 70 3.0 10.0 0.05 1.27 0.85 96 1006.2
20260506183549 43 46 2.0 6.0 0.06 1.27 0.85 96 1006.2
20260506183108 43 86 3.0 6.0 0.08 1.27 0.85 96 1006.2
20260506182548 43 70 1.0 5.0 0.09 1.27 0.85 96 1006.4
20260506182048 43 83 2.0 5.0 0.10 1.27 0.85 96 1006.4
20260506181601 43 65 2.0 5.0 0.11 1.27 0.85 96 1006.5
20260506181048 43 100 1.0 7.0 0.10 1.26 0.84 96 1006.7
20260506180550 43 126 1.0 7.0 0.11 1.26 0.84 96 1007.0
20260506180113 42 63 1.0 4.0 0.12 1.26 0.84 96 1006.9
20260506175546 42 55 1.0 8.0 0.11 1.25 0.83 96 1006.8
20260506175046 42 67 1.0 9.0 0.11 1.24 0.82 96 1007.0
20260506174554 42 66 2.0 9.0 0.11 1.23 0.81 96 1006.9
20260506174048 42 66 2.0 7.0 0.11 1.22 0.80 96 1006.9
20260506173551 43 73 3.0 7.0 0.11 1.21 0.79 96 1007.0
20260506173126 43 62 0.0 6.0 0.10 1.19 0.77 96 1006.9
20260506172545 43 63 2.0 6.0 0.10 1.17 0.76 96 1006.9
20260506172046 43 31 0.0 8.0 0.10 1.16 0.75 96 1006.9
20260506171556 43 0 2.0 8.0 0.10 1.16 0.74 96 1007.0
20260506171049 43 39 1.0 9.0 0.13 1.16 0.74 96 1006.9
20260506170550 43 44 3.0 9.0 0.12 1.15 0.73 96 1006.6
20260506170053 43 73 1.0 5.0 0.12 1.14 0.72 96 1006.7
20260506165547 43 86 2.0 6.0 0.13 1.14 0.72 96 1007.0
20260506165048 43 83 2.0 7.0 0.12 1.13 0.71 96 1007.0
20260506164551 43 0 2.0 8.0 0.12 1.12 0.70 96 1007.0
20260506164048 43 75 3.0 8.0 0.12 1.11 0.69 96 1007.0
20260506163547 43 96 1.0 5.0 0.12 1.10 0.68 96 1006.8
20260506163056 43 0 2.0 5.0 0.11 1.09 0.67 96 1006.9
20260506162547 43 111 1.0 4.0 0.11 1.08 0.66 96 1007.1
20260506162047 43 49 1.0 6.0 0.10 1.05 0.64 96 1007.2
20260506161555 43 88 2.0 6.0 0.09 1.04 0.63 96 1007.1
20260506161047 43 30 1.0 7.0 0.08 1.03 0.61 96 1007.1
20260506160547 43 0 2.0 7.0 0.08 1.03 0.61 96 1007.0
20260506160053 43 341 1.0 7.0 0.08 1.02 0.60 96 1007.1
20260506155552 43 342 1.0 10.0 0.08 1.01 0.58 96 1007.0
20260506155048 43 35 2.0 10.0 0.07 1.00 0.58 96 1007.0
20260506154553 44 61 2.0 9.0 0.08 1.00 0.58 96 1007.0
20260506154047 44 26 2.0 8.0 0.07 0.99 0.57 96 1007.0
20260506153549 44 108 2.0 5.0 0.07 0.98 0.56 96 1007.0
20260506153052 44 0 1.0 3.0 0.07 0.97 0.55 96 1007.2
20260506152548 44 59 1.0 9.0 0.07 0.97 0.55 96 1007.2
20260506152047 44 74 3.0 9.0 0.06 0.96 0.54 96 1007.2
20260506151550 44 49 2.0 5.0 0.06 0.96 0.54 96 1007.3
20260506151047 44 52 1.0 9.0 0.05 0.95 0.52 96 1007.3
20260506150550 44 52 2.0 9.0 0.06 0.95 0.52 96 1007.3
20260506150056 45 342 1.0 5.0 0.05 0.94 0.52 96 1007.4
20260506145548 45 14 0.0 4.0 0.05 0.93 0.51 96 1007.5
20260506145048 45 84 2.0 6.0 0.05 0.93 0.51 96 1007.4
20260506144603 45 37 0.0 6.0 0.05 0.92 0.50 96 1007.6
20260506144047 45 58 2.0 5.0 0.05 0.92 0.50 96 1007.5
20260506143548 45 43 2.0 5.0 0.05 0.91 0.49 96 1007.5
20260506143052 45 39 0.0 4.0 0.04 0.90 0.48 96 1007.6
20260506142548 45 0 0.0 4.0 0.05 0.90 0.48 96 1007.5
20260506142047 45 36 0.0 4.0 0.06 0.90 0.48 96 1007.7
20260506141555 45 19 2.0 4.0 0.07 0.90 0.48 96 1007.5
20260506141047 45 44 1.0 4.0 0.08 0.90 0.48 96 1007.5
20260506140552 45 38 0.0 5.0 0.08 0.89 0.47 96 1007.5
20260506140052 45 84 1.0 5.0 0.09 0.89 0.47 96 1007.6
20260506135547 45 65 3.0 5.0 0.09 0.88 0.46 96 1007.6
20260506135048 45 86 2.0 10.0 0.10 0.88 0.46 96 1007.9
20260506134554 45 17 3.0 10.0 0.11 0.87 0.45 96 1007.4
20260506134047 45 0 2.0 9.0 0.12 0.87 0.45 96 1007.9
20260506133547 45 82 3.0 8.0 0.12 0.86 0.44 96 1007.2
20260506133058 45 240 3.0 8.0 0.12 0.86 0.44 96 1007.9
20260506132547 45 0 0.0 10.0 0.12 0.85 0.43 96 1007.8
20260506132048 45 153 2.0 10.0 0.12 0.84 0.42 96 1007.5
20260506131554 45 234 3.0 10.0 0.11 0.83 0.41 96 1009.1
20260506131047 45 5 5.0 10.0 0.11 0.82 0.40 96 1007.8
20260506130547 45 73 4.0 8.0 0.11 0.81 0.39 96 1007.7
20260506130053 45 66 2.0 4.0 0.11 0.80 0.38 96 1007.9
20260506125546 45 360 2.0 6.0 0.10 0.79 0.37 96 1008.7
20260506125046 45 84 2.0 6.0 0.09 0.78 0.36 96 1008.1